When you browse on this site, cookies collect data to enhance your experience and personalize the content and advertising you see.
Visit our Privacy Policy to learn more. By continuing to use the site, you agree to this use of cookies and data.
  • In Spain
  • List of Countries
  • For 7 days
  • Water Temperature
  • Satellite Maps
  • Weather Map
  • Weather Widgets
  • user-avatar
    Login

    Hourly Weather Newcastle

    Today, 23 April, Tuesday

    Time Temperature Precipitation Wind Pressure Humidity
    00:00 +19°C° 0 mm 3 mps 768 mmHg 95%
    01:00 +19°C° 0 mm 3 mps 768 mmHg 95%
    02:00 +18°C° 0 mm 3 mps 768 mmHg 95%
    03:00 +18°C° 0 mm 2 mps 768 mmHg 96%
    04:00 +17°C° 0 mm 2 mps 768 mmHg 97%
    05:00 +19°C° 0 mm 1 mps 768 mmHg 97%
    06:00 +19°C° 0 mm 1 mps 768 mmHg 96%
    07:00 +19°C° 0 mm 1 mps 769 mmHg 96%
    08:00 +21°C° 0 mm 1 mps 769 mmHg 86%
    09:00 +23°C° 0 mm 1 mps 769 mmHg 76%
    10:00 +26°C° 0 mm 1 mps 769 mmHg 65%
    11:00 +26°C° 0.1 mm 2 mps 768 mmHg 63%
    12:00 +27°C° 0.1 mm 2 mps 768 mmHg 60%
    13:00 +27°C° 0.1 mm 3 mps 768 mmHg 57%
    14:00 +27°C° 0.1 mm 3 mps 768 mmHg 63%
    15:00 +26°C° 0.1 mm 4 mps 767 mmHg 68%
    16:00 +25°C° 0.1 mm 4 mps 767 mmHg 74%
    17:00 +22°C° 0 mm 4 mps 768 mmHg 80%
    18:00 +21°C° 0 mm 3 mps 768 mmHg 85%
    19:00 +20°C° 0 mm 3 mps 769 mmHg 91%
    20:00 +19°C° 0 mm 3 mps 769 mmHg 91%
    21:00 +19°C° 0 mm 3 mps 769 mmHg 92%
    22:00 +19°C° 0 mm 3 mps 769 mmHg 92%
    23:00 +18°C° 0 mm 3 mps 769 mmHg 93%

    Tomorrow, 24 April, Wednesday

    Time Temperature Precipitation Wind Pressure Humidity
    00:00 +18°C° 0 mm 2 mps 768 mmHg 94%
    01:00 +18°C° 0 mm 2 mps 768 mmHg 95%
    02:00 +17°C° 0 mm 2 mps 768 mmHg 95%
    03:00 +18°C° 0 mm 1 mps 768 mmHg 96%
    04:00 +18°C° 0 mm 1 mps 768 mmHg 97%
    05:00 +18°C° 0 mm 1 mps 768 mmHg 96%
    06:00 +18°C° 0 mm 1 mps 768 mmHg 95%
    07:00 +18°C° 0 mm 1 mps 768 mmHg 95%
    08:00 +19°C° 0 mm 2 mps 768 mmHg 84%
    09:00 +23°C° 0 mm 2 mps 768 mmHg 74%
    10:00 +25°C° 0 mm 2 mps 768 mmHg 64%
    11:00 +26°C° 0 mm 2 mps 768 mmHg 59%
    12:00 +26°C° 0 mm 2 mps 767 mmHg 55%
    13:00 +27°C° 0 mm 2 mps 767 mmHg 51%
    14:00 +27°C° 0 mm 3 mps 766 mmHg 54%
    15:00 +26°C° 0 mm 3 mps 766 mmHg 57%
    16:00 +25°C° 0 mm 4 mps 765 mmHg 59%
    17:00 +23°C° 0 mm 4 mps 766 mmHg 66%
    18:00 +21°C° 0 mm 4 mps 766 mmHg 73%
    19:00 +20°C° 0 mm 4 mps 766 mmHg 79%
    20:00 +19°C° 0 mm 4 mps 766 mmHg 82%
    21:00 +19°C° 0 mm 4 mps 767 mmHg 85%
    22:00 +18°C° 0 mm 4 mps 767 mmHg 87%
    23:00 +18°C° 0 mm 3 mps 766 mmHg 90%

    Day after tomorrow, 25 April, Thursday

    Time Temperature Precipitation Wind Pressure Humidity
    00:00 +17°C° 0 mm 3 mps 766 mmHg 92%
    01:00 +17°C° 0 mm 2 mps 766 mmHg 94%
    02:00 +16°C° 0 mm 2 mps 765 mmHg 95%
    03:00 +16°C° 0 mm 2 mps 765 mmHg 95%
    04:00 +16°C° 0 mm 2 mps 765 mmHg 96%
    05:00 +16°C° 0 mm 2 mps 765 mmHg 94%
    06:00 +16°C° 0 mm 2 mps 765 mmHg 93%
    07:00 +17°C° 0 mm 2 mps 765 mmHg 91%
    08:00 +19°C° 0 mm 2 mps 765 mmHg 79%
    09:00 +23°C° 0 mm 1 mps 765 mmHg 67%
    10:00 +26°C° 0 mm 1 mps 765 mmHg 56%
    11:00 +27°C° 0 mm 2 mps 765 mmHg 52%
    12:00 +28°C° 0 mm 2 mps 764 mmHg 49%
    13:00 +29°C° 0 mm 2 mps 763 mmHg 45%
    14:00 +28°C° 0 mm 2 mps 763 mmHg 51%
    15:00 +27°C° 0 mm 2 mps 763 mmHg 56%
    16:00 +26°C° 0 mm 3 mps 762 mmHg 62%
    17:00 +24°C° 0 mm 2 mps 763 mmHg 72%
    18:00 +21°C° 0 mm 2 mps 763 mmHg 81%
    19:00 +19°C° 0 mm 2 mps 764 mmHg 91%
    20:00 +19°C° 0 mm 2 mps 764 mmHg 91%
    21:00 +18°C° 0 mm 2 mps 764 mmHg 91%
    22:00 +18°C° 0 mm 2 mps 764 mmHg 91%
    23:00 +18°C° 0 mm 2 mps 763 mmHg 91%

    26 April, Friday

    Time Temperature Precipitation Wind Pressure Humidity
    00:00 +18°C° 0 mm 2 mps 763 mmHg 92%
    01:00 +17°C° 0 mm 2 mps 762 mmHg 92%
    02:00 +17°C° 0 mm 2 mps 762 mmHg 90%
    03:00 +17°C° 0 mm 3 mps 762 mmHg 87%
    04:00 +17°C° 0 mm 3 mps 761 mmHg 85%
    05:00 +18°C° 0 mm 3 mps 762 mmHg 82%
    06:00 +18°C° 0 mm 3 mps 762 mmHg 78%
    07:00 +18°C° 0 mm 4 mps 762 mmHg 75%
    08:00 +20°C° 0 mm 4 mps 762 mmHg 66%
    09:00 +23°C° 0 mm 4 mps 762 mmHg 57%
    10:00 +26°C° 0 mm 4 mps 762 mmHg 48%
    11:00 +27°C° 0 mm 4 mps 761 mmHg 44%
    12:00 +29°C° 0 mm 4 mps 760 mmHg 39%
    13:00 +30°C° 0 mm 4 mps 760 mmHg 34%
    14:00 +29°C° 0 mm 3 mps 759 mmHg 34%
    15:00 +29°C° 0 mm 3 mps 759 mmHg 34%
    16:00 +28°C° 0 mm 2 mps 759 mmHg 34%
    17:00 +26°C° 0 mm 3 mps 760 mmHg 36%
    18:00 +24°C° 0 mm 3 mps 761 mmHg 37%
    19:00 +20°C° 0 mm 4 mps 762 mmHg 38%
    20:00 +19°C° 0 mm 5 mps 763 mmHg 42%
    21:00 +19°C° 0 mm 6 mps 763 mmHg 46%
    22:00 +17°C° 0 mm 7 mps 764 mmHg 50%
    23:00 +16°C° 0 mm 6 mps 764 mmHg 54%

    27 April, Saturday

    Time Temperature Precipitation Wind Pressure Humidity
    00:00 +15°C° 0 mm 5 mps 765 mmHg 57%
    01:00 +14°C° 0 mm 4 mps 765 mmHg 61%
    02:00 +13°C° 0 mm 4 mps 765 mmHg 63%
    03:00 +12°C° 0 mm 4 mps 765 mmHg 66%
    04:00 +12°C° 0 mm 4 mps 765 mmHg 68%
    05:00 +12°C° 0 mm 4 mps 766 mmHg 68%
    06:00 +12°C° 0 mm 4 mps 766 mmHg 68%
    07:00 +11°C° 0 mm 4 mps 767 mmHg 68%
    08:00 +13°C° 0 mm 4 mps 767 mmHg 61%
    09:00 +15°C° 0 mm 4 mps 767 mmHg 54%
    10:00 +18°C° 0 mm 3 mps 767 mmHg 47%
    11:00 +20°C° 0 mm 3 mps 766 mmHg 44%
    12:00 +21°C° 0 mm 2 mps 766 mmHg 41%
    13:00 +24°C° 0 mm 1 mps 765 mmHg 38%
    14:00 +23°C° 0 mm 1 mps 765 mmHg 40%
    15:00 +22°C° 0 mm 1 mps 764 mmHg 41%
    16:00 +22°C° 0 mm 1 mps 764 mmHg 43%
    17:00 +20°C° 0 mm 1 mps 764 mmHg 50%
    18:00 +17°C° 0 mm 2 mps 764 mmHg 58%
    19:00 +15°C° 0 mm 2 mps 765 mmHg 66%
    20:00 +14°C° 0 mm 2 mps 765 mmHg 68%
    21:00 +13°C° 0 mm 2 mps 765 mmHg 70%
    22:00 +12°C° 0 mm 3 mps 765 mmHg 72%
    23:00 +11°C° 0 mm 3 mps 765 mmHg 66%

    28 April, Sunday

    Time Temperature Precipitation Wind Pressure Humidity
    00:00 +11°C° 0 mm 4 mps 764 mmHg 59%
    01:00 +11°C° 0 mm 4 mps 764 mmHg 52%
    02:00 +11°C° 0 mm 4 mps 764 mmHg 54%
    03:00 +10°C° 0 mm 4 mps 764 mmHg 57%
    04:00 +10°C° 0 mm 4 mps 764 mmHg 59%
    05:00 +8°C° 0 mm 4 mps 764 mmHg 60%
    06:00 +8°C° 0 mm 4 mps 765 mmHg 62%
    07:00 +8°C° 0 mm 4 mps 765 mmHg 63%
    08:00 +12°C° 0 mm 4 mps 765 mmHg 57%
    09:00 +14°C° 0 mm 4 mps 765 mmHg 51%
    10:00 +18°C° 0 mm 3 mps 765 mmHg 45%
    11:00 +19°C° 0 mm 3 mps 765 mmHg 41%
    12:00 +21°C° 0 mm 3 mps 765 mmHg 37%
    13:00 +24°C° 0 mm 2 mps 764 mmHg 33%
    14:00 +22°C° 0 mm 3 mps 764 mmHg 36%
    15:00 +21°C° 0 mm 3 mps 764 mmHg 40%
    16:00 +21°C° 0 mm 3 mps 764 mmHg 43%
    17:00 +19°C° 0 mm 3 mps 765 mmHg 53%
    18:00 +17°C° 0 mm 3 mps 765 mmHg 62%
    19:00 +15°C° 0 mm 2 mps 766 mmHg 72%
    20:00 +15°C° 0 mm 2 mps 766 mmHg 75%
    21:00 +14°C° 0 mm 1 mps 766 mmHg 79%
    22:00 +14°C° 0 mm 1 mps 766 mmHg 82%
    23:00 +13°C° 0 mm 1 mps 766 mmHg 84%
    Show more